Location: Newark
(40.4833°N, 25.5167°E)
Time: 23:41:47
(UTC+00:00)

ISS - Visible Passes

Search period start: 22 October 2019 00:00
Search period end: 01 November 2019 00:00
Orbit: 411 x 421 km, 51.6° (Epoch: 23 October)

Date Brightness Start Highest point End Pass type
(mag) Time Alt. Az. Time Alt. Az. Time Alt. Az.
23 Oct -1.9 04:01:42 10° SSW 04:04:44 33° SE 04:07:48 10° ENE visible
24 Oct -1.1 03:13:53 10° S 03:16:20 19° SE 03:18:47 10° E visible
25 Oct -0.6 02:27:11 10° SE 02:27:59 11° SE 02:28:47 10° ESE visible
25 Oct -3.8 04:00:52 10° SW 04:04:14 84° NW 04:07:37 10° NE visible
26 Oct -3.1 03:13:54 23° SSW 03:15:42 54° SE 03:19:00 10° ENE visible
27 Oct -1.7 02:27:58 27° ESE 02:27:58 27° ESE 02:30:12 10° ENE visible
27 Oct -2.9 04:00:54 11° W 04:03:54 34° NNW 04:07:01 10° NE visible
28 Oct -3.6 03:14:47 48° WNW 03:15:13 53° NNW 03:18:33 10° NE visible
29 Oct -1.5 02:28:32 24° NE 02:28:32 24° NE 02:29:59 10° NE visible
29 Oct -2.0 04:01:27 11° WNW 04:03:42 19° NNW 04:06:14 10° NNE visible
30 Oct -2.4 03:15:04 25° NNW 03:15:04 25° NNW 03:17:47 10° NE visible
31 Oct -1.0 02:28:35 15° NE 02:28:35 15° NE 02:29:19 10° NE visible
31 Oct -1.5 04:01:47 10° NW 04:03:37 14° N 04:05:28 10° NNE visible
